EHI
0 0 0 0 0 0 0 0 0 0 0 0 0 0 0 0 0 0 0 0 0 0 0 0 0 0 0 0 0 0 0 0 0 0 0 0 0 0
0 0 0 0 0 0 0 0 0 0 0 0 0 0 0 0 0 0 0 0 0 0 0 0 0 0 0 0 0 0 0 0 0 0 0 0 0 0
0 0 0 0 0 0 0 0 0 0 0 0 0 0 0 0 0 0 0 0 0 0 0 0 0 0 0 0 0 0 0 0 0 0 0 0 0 0
0 0 0 0 0 0 0 0 0 0 0 0 0 0 0 0 0 0 0 0 0 0 0 0 0 0 0 0 0 0 0 0 0 0 0 0 0 0
0 0 0 0 0 0 0 0 0 0 0 0 0 0 0 0 0 0 0 0 0 0 0 0 0 0 0 0 0 0 0 0 0 0 0 0 0 0
0 0 0 0 0 0 0 0 0 0 0 0 0 0 0 0 0 0 0 0 0 0 0 0 0 0 0 0 0 0 0 0 0 0 0 0 0 0
0 0 0 0 0 0 0 0 0 0 0 0 0 0 0 0 0 0 0 0 0 0 0 0 0 0 0 0 0 0 0 0 0 0 0 0 0 0
0 0 0 0 0 0 0 0 0 0 0 0 0 0 0 0 0 0 0 0 0 0 0 0 0 0 0 0 0 0 0 0 0 0 0 0 0 0
0 0 0 0 0 0 0 0 0 0 0 0 0 0 0 0 0 0 0 0 0 0 0 0 0 0 0 0 0 0 0 0 0 0 0 0 0 0
0 0 0 0 0 0 0 0 0 0 0 0 0 0 0 0 0 0 0 0 0 0 0 0 0 0 0 0 0 0 0 0 0 0 0 0 0 0
0 0 0 0 0 0 0 0 0 0 0 0 0 0 0 0 0 0 0 0 0 0 0 0 0 0 0 0 0 0 0 0 0 0 0 0 0 0
0 0 0 0 0 0 0 0 0 0 0 0 0 0 0 0 0 0 0 0 0 0 0 0 0 0 0 0 0 0 0 0 0 0 0 0 0 0
0 0 0 0 0 0 0 0 0 0 0 0 0 0 0 0 0 0 0 0 0 0 0 0 0 0 0 0 0 0 0 0 0 0 0 0 0 0
0 0 0 0 0 0 0 0 0 0 0 0 0 0 0 0 0 0 0 0 0 0 0 0 0 0 0 0 0 0 0 0 0 0 0 0 0 0
0 0 0 0 0 0 0 0 0 0 0 0 0 0 0 0 0 0 0 0 0 0 0 0 0 0 0 0 0 0 0 0 0 0 0 0 0 0
0 0 0 0 0 0 0 0 0 0 0 0 0 0 0 0 0 0 0 0 0 0 0 0 0 0 0 0 0 0 0 0 0 0 0 0 0 0
0 0 0 0 0 0 0 0 0 0 0 0 0 0 0 0 0 0 0 0 0 0 0 0 0 0 0 0 0 0 0 0 0 0 0 0 0 0
0 0 0 0 0 0 0 0 0 0 0 0 0 0 0 0 0 0 0 0 0 0 0 0 0 0 0 0 0 0 0 0 0 0 0 0 0 0
0 0 0 0 0 0 0 0 0 0 0 0 0 0 0 0 0 0 0 0 0 0 0 0 0 0 0 0 0 0 0 0 0 0 0 0 0 0
0 0 0 0 0 0 0 0 0 0 0 0 0 0 0 0 0 0 0 0 0 0 0 0 0 0 0 0 0 0 0 0 0 0 0 0 0 0
0 0 0 0 0 0 0 0 0 0 0 0 0 0 0 0 0 0 0 0 0 0 0 0 0 0 0 0 0 0 0 0 0 0 0 0 0 0
0 0 0 0 0 0 0 0 0 0 0 0 0 0 0 0 0 0 0 0 0 0 0 0 0 0 0 0 0 0 0 0 0 0 0 0 0 0
0 0 0 0 0 0 0 0 0 0 0 0 0 0 0 0 0 0 0 0 0 0 0 0 0 0 0 0 0 0 0 0 0 0 0 0 0 0
Wind_Speed
4 5 4 3 3 3 2 2 3 2 2 3 3 4 4 3 5 4 4 7 8 8 8 7 7 7 7 8 8 8 7 6 5 2 1 2 3 4
3 5 5 3 3 3 3 3 2 3 1 2 2 3 3 4 6 4 4 8 8 8 8 8 8 8 8 7 7 7 6 5 5 5 4 3 4 4
4 5 5 4 4 4 3 3 3 2 2 2 2 3 4 4 4 4 4 4 4 8 8 9 9 8 8 8 8 7 6 5 5 5 6 5 5 5
4 5 4 4 5 4 3 4 3 2 2 1 3 3 4 4 4 4 5 5 3 7 9 9 9 9 9 8 8 7 7 6 6 6 6 7 7 6
3 4 3 4 4 3 4 3 2 3 2 2 2 2 2 3 4 4 5 4 5 6 8 8 9 9 9 9 9 8 8 7 7 6 7 7 8 9
3 3 3 3 3 3 3 3 3 3 3 2 2 2 3 3 3 3 4 4 4 5 6 6 8 9 10 10 10 9 8 8 8 8 8 8 8 9
3 3 3 4 5 4 3 2 3 2 2 2 2 2 3 3 3 2 3 4 4 3 4 4 4 4 5 7 9 10 9 9 9 9 9 9 9 9
3 3 3 4 5 7 7 6 4 3 2 1 1 1 2 2 2 2 2 3 4 3 3 4 3 3 4 3 7 9 9 10 9 9 10 10 10 10
3 2 2 3 4 3 5 7 6 6 3 2 1 1 2 2 2 2 2 1 3 4 2 4 3 3 4 5 9 9 10 11 10 10 11 11 11 11
2 2 2 1 1 2 3 3 3 4 3 1 1 2 2 2 2 2 2 2 4 3 1 3 3 3 5 4 8 9 9 10 10 11 11 11 11 12
1 1 2 1 1 4 3 2 4 4 4 4 4 4 5 4 2 1 2 2 3 4 2 1 3 4 4 4 5 8 9 10 10 12 13 12 11 11
1 1 1 1 1 3 2 1 2 3 4 5 6 7 5 5 5 0 1 1 2 3 3 1 2 3 4 3 3 4 5 8 10 11 13 13 11 7
1 0 1 1 1 1 1 1 2 2 2 3 3 4 4 3 3 2 2 2 2 4 3 1 2 2 3 5 4 4 4 5 5 6 9 11 12 8
2 2 2 2 2 2 1 2 3 3 1 2 3 3 3 3 3 3 3 3 4 5 5 2 2 3 3 4 6 4 4 5 5 5 5 8 10 11
2 3 2 2 2 2 4 4 3 1 1 2 2 3 3 3 3 3 4 3 3 4 4 3 3 3 3 4 5 5 6 6 4 4 5 5 6 6
1 2 2 2 1 2 3 3 2 1 1 2 3 3 3 3 2 2 3 3 3 4 4 4 4 4 4 5 6 7 6 5 6 6 6 6 6 5
2 1 1 1 2 2 2 2 2 2 1 2 2 3 3 3 3 3 2 2 2 4 5 4 4 4 5 6 6 7 7 7 7 7 6 8 7 6
3 1 2 2 2 3 3 3 2 2 3 2 2 2 3 3 4 3 2 2 3 4 5 5 5 5 5 5 7 7 6 7 7 7 6 8 10 8
3 2 3 3 3 3 3 3 3 3 3 2 3 3 3 3 3 3 3 3 4 5 5 4 4 4 8 11 7 5 7 8 7 7 7 8 10 10
3 3 4 4 3 3 3 3 3 3 2 2 3 3 3 3 3 4 4 4 5 5 5 4 4 4 7 10 10 8 8 8 8 9 9 8 9 11
4 4 4 4 4 4 3 3 3 3 3 3 3 3 3 3 3 4 4 7 6 5 6 6 6 9 6 5 8 9 7 9 11 10 10 10 11 10
5 5 4 4 4 4 3 3 3 3 3 3 3 3 3 3 4 5 5 5 5 6 7 7 7 5 4 7 10 12 12 10 10 14 16 15 10 11
5 4 4 4 4 3 3 3 4 3 4 4 4 4 3 4 4 4 5 5 6 7 7 7 6 5 6 7 9 10 13 13 10 10 9 12 17 21
Wind_Direction
64 64 61 47 49 56 78 114 125 86 355 329 340 340 343 355 3 5 360 6 13 14 15 18 15 14 16 17 15 12 8 6 2 348 298 272 259 252
65 65 56 44 48 46 57 63 93 126 108 305 314 319 341 3 6 0 359 8 9 9 9 10 10 8 6 2 0 2 1 358 350 342 323 302 285 271
58 66 57 52 53 41 47 56 59 86 99 320 325 337 1 359 351 352 1 4 355 4 7 7 5 360 359 360 358 352 351 349 343 336 334 317 301 286
67 66 55 60 53 43 47 50 48 58 96 29 340 347 355 350 351 357 1 1 350 1 3 2 2 5 5 0 358 358 354 347 339 333 328 325 317 311
90 86 75 74 59 44 49 48 40 42 54 71 350 338 338 351 357 354 356 349 351 2 2 2 3 6 6 3 2 1 358 353 343 331 323 320 320 316
85 92 89 93 89 67 56 46 50 49 44 48 14 349 341 338 5 356 348 343 340 351 355 356 359 3 359 360 358 355 352 350 347 342 335 323 314 313
69 68 76 87 83 78 77 68 67 61 51 46 22 4 347 350 345 330 335 324 322 339 338 340 346 350 347 349 351 349 347 347 344 339 335 328 320 315
86 60 61 60 60 61 63 67 72 80 81 66 24 352 308 305 310 327 337 353 327 324 345 321 338 332 324 326 336 343 349 347 342 338 335 332 327 321
109 93 70 59 60 54 45 43 37 38 58 137 148 262 271 277 297 322 322 308 278 290 336 308 320 316 309 323 332 338 344 344 342 338 334 331 327 321
117 125 115 78 47 75 62 33 14 5 359 60 178 245 256 261 239 247 262 288 289 293 313 296 308 305 309 307 318 330 335 334 332 330 328 327 326 321
67 97 116 122 51 83 80 41 5 344 346 359 348 333 328 331 338 14 353 0 322 304 315 290 298 306 302 298 312 324 325 324 320 320 320 318 316 317
38 24 64 89 75 87 97 84 352 315 331 340 345 345 341 334 337 265 209 262 292 298 297 299 297 327 315 296 304 316 319 312 309 307 307 308 310 310
133 331 306 340 44 71 90 151 270 293 313 328 330 332 335 333 323 299 227 206 235 263 276 281 288 293 271 293 300 295 297 300 303 297 297 298 300 297
186 220 259 303 336 353 354 327 333 359 357 347 340 329 325 319 311 304 283 256 237 248 269 258 258 266 279 291 294 296 295 288 286 285 286 295 295 293
203 219 243 278 309 326 325 329 341 357 344 328 308 296 288 290 305 312 309 301 293 283 284 264 256 267 258 271 282 289 300 297 284 283 289 289 286 289
209 250 263 293 298 300 315 324 314 267 250 259 275 281 295 310 310 304 305 319 322 312 306 294 277 268 276 274 276 286 286 285 294 291 288 285 280 273
165 76 11 333 322 316 311 305 302 309 290 275 278 292 301 305 300 302 298 309 305 302 309 307 293 276 261 267 280 280 284 286 284 288 292 290 283 273
149 176 229 239 250 262 274 286 286 276 266 263 268 273 283 289 295 300 295 294 295 296 296 298 308 314 307 281 247 272 283 283 286 284 279 285 287 280
170 212 227 235 243 249 250 252 262 267 263 260 264 270 274 281 286 292 295 294 289 288 289 294 299 302 307 304 290 255 281 290 290 288 280 277 282 284
204 220 231 236 238 240 244 249 260 273 268 263 264 268 269 275 283 286 287 286 287 290 293 291 285 280 280 289 294 290 274 275 283 286 287 284 279 277
222 230 233 233 234 236 240 243 247 254 259 258 262 264 266 269 276 280 282 287 288 290 293 291 280 280 280 287 291 292 285 270 268 277 286 290 293 290
224 227 232 231 232 234 236 238 246 251 258 256 259 262 264 261 269 277 281 284 283 282 285 288 292 294 286 286 291 295 299 298 283 272 267 266 277 283
225 224 228 232 232 230 229 233 238 248 250 252 255 259 262 265 267 270 275 279 283 288 292 295 295 287 282 281 287 292 295 299 301 299 288 278 274 274